Погода в Чеховке

Россия / Брянская область     52°38′05″N   33°22′29″E
темп.,
°C
ветер,
м/с
пор.,
м/с
влажн.,
%
обл.,
%
осадки,
мм/ч
давл.,
гПа
погр.,
м
12 мая, ср
ср1200:00+10в411935 0.0 1023345
03:00+6в4109388 0.0 1023288
06:00+5всв310950 0.0 1024299
09:00+11в59755 0.0 1024710
12:00+15в5756100 0.0 10211786
15:00+15всв5756100 0.1 10191742
18:00+12всв5876100 0.6 1017631
21:00+9всв378911 0.7 1016135
13 мая, чт
чт1300:00+8всв3893100 0.1 1014295
03:00+7в41098100 0.7 1013465
06:00+8юв599499 1.9 1013572
09:00+9юв6983100 1.9 1014790
12:00+11ю577274 0.2 10141165
15:00+13ююв466899 0.3 10131171
18:00+13ююв467124 0.0 10131012
21:00+9юв36855 0.0 101482
14 мая, пт
пт1400:00+9вюв3882100 0.0 1014163
03:00+8вюв4985100 0.0 1013170
06:00+9вюв41186100 0.0 1013257
09:00+12в51090100 0.5 1011413
12:00+18ююв687595 0.1 10101021
15:00+19ююв587892 0.5 1009945
18:00+20ю477591 0.6 1008760
21:00+14ю34905 0.9 100953
15 мая, сб
сб1500:00+13ююв34923 0.0 100948
03:00+12ю33925 0.0 100833
06:00+12ю37967 0.5 1009145
09:00+16ююз45825 0.5 1009492
12:00+19юз566914 1.5 10091159
15:00+17зюз677862 4.2 1010759
18:00+18юз376911 0.1 10101250
21:00+12ююз48885 0.2 1011147
16 мая, вс
вс1600:00+11ююз37925 0.0 1012126
03:00+10ююз369529 0.0 1013110
06:00+10ююз25940 0.0 1014127
09:00+15ююз35750 0.0 1014506
12:00+19ююз34625 0.0 10141169
15:00+21ююз2356100 0.0 10131458
18:00+20ююв3474100 0.4 1013341
21:00+16вюв2384100 0.6 101326